FW9876 Weather Reports


time (UTC)temp
C
wind
direction
speed
KPH
gust
KPH
rain 1hr
cm
rain 24hr
cm
rain mn
cm
humidity
%
barometer
mb
20260507143511 12 275 0.0 0.0 0.00 0.00 0.00 97 1014.6
20260507142509 12 191 0.0 0.0 0.00 0.00 0.00 99 1014.6
20260507141508 12 338 0.0 0.0 0.00 0.00 0.00 99 1014.6
20260507140508 12 55 0.0 0.0 0.00 0.00 0.00 99 1014.6
20260507135508 11 178 0.0 0.0 0.00 0.00 0.00 99 1014.2
20260507134508 11 139 0.0 0.0 0.00 0.00 0.00 99 1014.2
20260507133505 10 199 0.0 0.0 0.00 0.00 0.00 99 1013.9
20260507132500 10 49 0.0 0.0 0.00 0.00 0.00 99 1014.2
20260507131459 10 196 0.0 0.0 0.00 0.00 0.00 99 1014.2
20260507130458 10 169 0.0 0.0 0.00 0.00 0.00 99 1014.2
20260507125455 10 142 0.0 0.0 0.00 0.00 0.00 99 1013.9
20260507124454 10 172 0.0 0.0 0.00 0.00 0.00 99 1013.9
20260507123455 10 169 0.0 0.0 0.00 0.00 0.00 99 1013.9
20260507122452 10 161 0.0 0.0 0.00 0.00 0.00 99 1013.9
20260507121450 10 180 0.0 0.0 0.00 0.00 0.00 99 1013.6
20260507120449 10 180 0.0 0.0 0.00 0.00 0.00 99 1013.9
20260507115448 10 232 0.0 0.0 0.00 0.00 0.00 99 1013.6
20260507114445 11 139 0.0 0.0 0.00 0.00 0.00 99 1013.6
20260507113446 11 162 0.0 0.0 0.00 0.00 0.00 99 1013.9
20260507112440 11 190 0.0 0.0 0.00 0.00 0.00 99 1013.9
20260507111440 11 89 0.0 0.0 0.00 0.00 0.00 99 1014.2
20260507110438 11 161 0.0 0.0 0.00 0.00 0.00 99 1014.2
20260507105438 11 164 0.0 0.0 0.00 0.00 0.00 99 1014.2
20260507104437 11 127 0.0 0.0 0.00 0.00 0.00 99 1014.2
20260507103435 11 167 0.0 0.0 0.00 0.00 0.00 99 1014.2
20260507102434 11 163 0.0 0.0 0.00 0.00 0.00 99 1014.2
20260507101431 11 114 0.0 0.0 0.00 0.00 0.00 99 1014.2
20260507100431 11 184 0.0 0.0 0.00 0.00 0.00 99 1014.6
20260507095427 11 225 0.0 0.0 0.00 0.00 0.00 99 1014.6
20260507094426 11 233 0.0 0.0 0.00 0.00 0.00 98 1014.6
20260507093421 12 130 0.0 0.0 0.00 0.00 0.00 98 1014.6
20260507092420 12 139 0.0 0.0 0.00 0.00 0.00 98 1014.9
20260507091420 12 167 0.0 0.0 0.00 0.00 0.00 98 1014.9
20260507090418 12 157 0.0 0.0 0.00 0.00 0.00 99 1014.6
20260507085418 12 200 0.0 0.0 0.00 0.00 0.00 99 1014.6
20260507084417 12 144 0.0 0.0 0.00 0.00 0.00 99 1014.9
20260507083417 11 152 0.0 0.0 0.00 0.00 0.00 99 1015.3
20260507082415 12 162 0.0 0.0 0.00 0.00 0.00 98 1015.3
20260507081414 12 256 0.0 0.0 0.00 0.00 0.00 98 1015.3
20260507080413 12 134 0.0 0.0 0.00 0.00 0.00 98 1015.3
20260507075410 12 175 0.0 0.0 0.00 0.00 0.00 98 1015.3
20260507074410 12 153 0.0 0.0 0.00 0.00 0.00 97 1015.3
20260507073410 12 128 0.0 0.0 0.00 0.00 0.00 97 1015.3
20260507072404 12 149 0.0 0.0 0.00 0.00 0.00 98 1015.6
20260507071404 12 127 0.0 0.0 0.00 0.00 0.00 97 1015.6
20260507070404 12 150 0.0 0.0 0.00 0.00 0.00 97 1015.6
20260507065403 13 132 0.0 0.0 0.00 0.00 0.00 98 1015.6
20260507064359 12 140 0.0 0.0 0.00 0.00 0.00 98 1015.6
20260507063359 12 163 0.0 0.0 0.00 0.00 0.00 97 1015.6
20260507062358 12 151 0.0 0.0 0.00 0.00 0.00 97 1015.6
20260507061354 12 171 0.0 0.0 0.00 0.00 0.00 97 1015.6
20260507060355 13 164 0.0 0.0 0.00 0.00 0.00 96 1015.6
20260507055352 13 138 0.0 0.0 0.00 0.00 0.00 96 1015.6
20260507054351 13 129 0.0 0.0 0.00 0.00 0.00 96 1015.9
20260507053347 13 156 0.0 0.0 0.00 0.00 0.00 96 1015.6
20260507052341 13 172 0.0 0.0 0.00 0.00 0.00 96 1015.6
20260507051337 13 162 0.0 0.0 0.00 0.00 0.00 96 1015.6
20260507050335 12 184 0.0 0.0 0.00 0.00 0.00 96 1015.9
20260507045335 12 172 0.0 0.0 0.00 0.00 0.00 95 1015.6
20260507044334 13 170 0.0 0.0 0.00 0.00 0.00 94 1015.6
20260507043333 13 171 0.0 0.0 0.00 0.00 0.00 94 1015.6
20260507042331 13 109 0.0 0.0 0.00 0.00 0.00 93 1015.9
20260507041331 13 181 0.0 0.0 0.00 0.00 0.00 93 1015.6
20260507040330 13 208 0.0 0.0 0.00 0.00 0.00 92 1015.3
20260507035327 13 211 0.0 0.0 0.00 0.00 0.00 92 1015.3
20260507034322 13 239 0.0 0.0 0.00 0.00 0.00 91 1015.3
20260507033318 14 214 0.0 0.0 0.00 0.00 0.00 90 1015.3
20260507032316 14 215 0.0 0.0 0.00 0.00 0.00 89 1015.3
20260507031316 15 215 0.0 0.0 0.00 0.00 0.00 88 1015.3
20260507030316 15 215 0.0 0.0 0.00 0.00 0.00 87 1014.9
20260507025315 16 214 0.0 0.0 0.00 0.00 0.00 87 1014.9
20260507024315 16 214 0.0 0.0 0.00 0.00 0.00 84 1014.9
20260507023312 17 207 0.0 0.0 0.00 0.00 0.00 82 1014.6
20260507022312 18 219 0.0 0.0 0.00 0.00 0.00 76 1014.6
20260507021310 18 237 0.0 0.0 0.00 0.00 0.00 73 1014.9
20260507020310 20 181 0.0 0.0 0.00 0.00 0.00 68 1014.2
20260507015310 20 220 0.0 0.0 0.00 0.00 0.00 64 1014.2
20260507014309 20 309 0.0 3.2 0.00 0.00 0.00 64 1014.2
20260507013309 20 245 0.0 0.0 0.00 0.00 0.00 63 1014.2
20260507012308 20 216 0.0 3.2 0.00 0.00 0.00 61 1014.2
20260507011308 20 226 0.0 0.0 0.00 0.00 0.00 62 1013.9
20260507010303 20 244 0.0 0.0 0.00 0.00 0.00 62 1013.9
20260507005305 21 272 3.2 3.2 0.00 0.00 0.00 64 1013.9
20260507004303 21 250 0.0 3.2 0.00 0.00 0.00 65 1013.9
20260507003301 21 225 0.0 0.0 0.00 0.00 0.00 65 1013.9
20260507002259 21 246 0.0 0.0 0.00 0.00 0.00 65 1013.9
20260507001254 21 251 0.0 0.0 0.00 0.00 0.00 64 1013.9
20260507000251 22 243 0.0 3.2 0.00 0.00 0.00 62 1013.6
20260506235249 22 225 0.0 3.2 0.00 0.00 0.00 61 1013.6
20260506234244 22 257 0.0 8.0 0.00 0.00 0.00 61 1013.6
20260506233244 22 262 0.0 8.0 0.00 0.00 0.00 59 1013.6
20260506232241 23 255 0.0 3.2 0.00 0.00 0.00 57 1013.6
20260506231237 23 207 0.0 8.0 0.00 0.00 0.00 59 1013.6
20260506230236 23 226 0.0 12.9 0.00 0.00 0.00 58 1013.6
20260506225236 23 243 8.0 12.9 0.00 0.00 0.00 58 1013.6
20260506224236 23 215 0.0 8.0 0.00 0.00 0.00 60 1013.6
20260506223233 23 198 1.6 8.0 0.00 0.00 0.00 60 1013.9
20260506222232 23 223 0.0 8.0 0.00 0.00 0.00 59 1013.9
20260506221228 22 274 3.2 20.9 0.00 0.00 0.00 61 1014.2
20260506220225 23 249 0.0 3.2 0.00 0.00 0.00 61 1014.2
20260506215224 23 314 4.8 8.0 0.00 0.00 0.00 62 1014.2
20260506214224 23 263 0.0 3.2 0.00 0.00 0.00 59 1014.2
20260506213219 24 242 1.6 8.0 0.00 0.00 0.00 59 1014.2
20260506212217 23 212 0.0 3.2 0.00 0.00 0.00 59 1014.2
20260506211215 23 236 4.8 8.0 0.00 0.00 0.00 60 1014.2
20260506210215 23 196 0.0 3.2 0.00 0.00 0.00 60 1014.2
20260506205213 23 265 8.0 12.9 0.00 0.00 0.00 60 1014.6
20260506204208 23 261 4.8 8.0 0.00 0.00 0.00 60 1014.6
20260506203203 23 239 0.0 3.2 0.00 0.00 0.00 59 1014.6
20260506202203 22 267 4.8 8.0 0.00 0.00 0.00 60 1014.6
20260506201202 22 268 1.6 12.9 0.00 0.00 0.00 60 1014.6
20260506200202 23 296 0.0 8.0 0.00 0.00 0.00 59 1014.9
20260506195200 23 219 0.0 3.2 0.00 0.00 0.00 59 1014.9
20260506194200 23 251 3.2 12.9 0.00 0.00 0.00 58 1014.9
20260506193200 24 296 0.0 3.2 0.00 0.00 0.00 57 1014.9
20260506192200 23 212 0.0 8.0 0.00 0.00 0.00 59 1015.3
20260506191158 23 215 1.6 8.0 0.00 0.00 0.00 55 1015.3
20260506190158 22 251 0.0 0.0 0.00 0.00 0.00 57 1015.3
20260506185157 22 313 0.0 3.2 0.00 0.00 0.00 55 1015.3
20260506184152 23 209 0.0 3.2 0.00 0.00 0.00 55 1015.3
20260506183151 22 32 3.2 8.0 0.00 0.00 0.00 56 1015.6
20260506182151 22 202 0.0 8.0 0.00 0.00 0.00 57 1015.6
20260506181146 21 89 0.0 0.0 0.00 0.00 0.00 60 1015.9
20260506180145 21 202 0.0 3.2 0.00 0.00 0.00 60 1015.9
20260506175144 20 279 0.0 0.0 0.00 0.00 0.00 61 1015.9
20260506174139 20 203 0.0 3.2 0.00 0.00 0.00 60 1015.9
20260506173139 20 291 3.2 8.0 0.00 0.00 0.00 63 1015.9
20260506172138 21 203 0.0 0.0 0.00 0.00 0.00 56 1016.4
20260506171134 19 213 0.0 0.0 0.00 0.00 0.00 62 1016.4
20260506170128 18 228 0.0 3.2 0.00 0.00 0.00 66 1016.4
20260506165127 18 195 1.6 8.0 0.00 0.00 0.00 67 1016.4
20260506164127 19 284 1.6 3.2 0.00 0.00 0.00 67 1016.4
20260506163123 18 140 0.0 0.0 0.00 0.00 0.00 71 1016.4
20260506162123 17 326 0.0 0.0 0.00 0.00 0.00 71 1016.4
20260506161121 17 199 1.6 3.2 0.00 0.00 0.00 71 1016.4
20260506160121 17 264 0.0 0.0 0.00 0.00 0.00 73 1016.4
20260506155116 17 10 0.0 0.0 0.00 0.00 0.00 74 1016.4
20260506152924 17 90 0.0 0.0 0.00 0.00 0.00 75 1016.4
20260506151920 16 36 0.0 0.0 0.00 0.00 0.00 76 1016.4
20260506150920 16 81 0.0 0.0 0.00 0.00 0.00 79 1016.4
20260506145919 14 87 0.0 0.0 0.00 0.00 0.00 82 1016.4
20260506144918 12 4 0.0 0.0 0.00 0.00 0.00 90 1016.4
20260506143913 11 38 0.0 0.0 0.00 0.00 0.00 96 1016.4